Time,TemperatureF,DewpointF,PressureIn,WindDirection,WindDirectionDegrees,WindSpeedMPH,WindSpeedGustMPH,Humidity,HourlyPrecipIn,Conditions,Clouds,dailyrainin,SolarRadiationWatts/m^2,SoftwareType,DateUTC
2013-01-04 01:16:00,32.4,22.7,30.15,WNW,287,4.0,10.0,67,0.00,,,0.00,0,Wunderground v.1.15,2013-01-04 06:16:00,
2013-01-04 01:17:00,32.4,22.7,30.15,West,271,4.0,10.0,67,0.00,,,0.00,0,Wunderground v.1.15,2013-01-04 06:17:00,
2013-01-04 01:22:00,32.3,22.6,30.15,WSW,256,4.0,10.0,67,0.00,,,0.00,0,Wunderground v.1.15,2013-01-04 06:22:00,
2013-01-04 01:23:00,32.3,22.6,30.15,WNW,289,4.0,10.0,67,0.00,,,0.00,0,Wunderground v.1.15,2013-01-04 06:23:00,
2013-01-04 01:24:00,32.3,22.6,30.15,West,277,4.0,10.0,67,0.00,,,0.00,0,Wunderground v.1.15,2013-01-04 06:24:00,
2013-01-04 01:29:00,32.2,22.5,30.15,West,280,4.0,10.0,67,0.00,,,0.00,0,Wunderground v.1.15,2013-01-04 06:29:00,
2013-01-04 01:34:00,32.3,22.6,30.15,West,269,4.0,10.0,67,0.00,,,0.00,0,Wunderground v.1.15,2013-01-04 06:34:00,
2013-01-04 01:40:00,32.4,22.7,30.15,West,279,4.0,4.0,67,0.00,,,0.00,0,Wunderground v.1.15,2013-01-04 06:40:00,
2013-01-04 01:45:00,32.3,22.6,30.15,West,274,4.0,10.0,67,0.00,,,0.00,0,Wunderground v.1.15,2013-01-04 06:45:00,
2013-01-04 01:50:00,32.4,22.7,30.15,West,269,4.0,10.0,67,0.00,,,0.00,0,Wunderground v.1.15,2013-01-04 06:50:00,
2013-01-04 01:55:00,32.7,22.6,30.15,WNW,290,5.0,10.0,66,0.00,,,0.00,0,Wunderground v.1.15,2013-01-04 06:55:00,
2013-01-04 02:00:00,32.6,22.8,30.15,WNW,300,6.0,7.0,67,0.00,,,0.00,0,Wunderground v.1.15,2013-01-04 07:00:00,
2013-01-04 02:05:00,32.9,22.8,30.15,WSW,250,5.0,7.0,66,0.00,,,0.00,0,Wunderground v.1.15,2013-01-04 07:05:00,
2013-01-04 02:11:00,32.9,22.8,30.15,NW,306,5.0,6.0,66,0.00,,,0.00,0,Wunderground v.1.15,2013-01-04 07:11:00,
2013-01-04 02:16:00,33.1,23.0,30.16,WNW,287,5.0,6.0,66,0.00,,,0.00,0,Wunderground v.1.15,2013-01-04 07:16:00,
2013-01-04 02:21:00,33.0,22.9,30.15,WNW,298,5.0,5.0,66,0.00,,,0.00,0,Wunderground v.1.15,2013-01-04 07:21:00,
2013-01-04 02:26:00,32.9,22.8,30.16,WSW,251,4.0,8.0,66,0.00,,,0.00,0,Wunderground v.1.15,2013-01-04 07:26:00,
2013-01-04 02:31:00,33.0,22.9,30.16,WSW,248,5.0,9.0,66,0.00,,,0.00,0,Wunderground v.1.15,2013-01-04 07:31:00,
2013-01-04 02:36:00,32.8,22.7,30.16,WSW,247,4.0,9.0,66,0.00,,,0.00,0,Wunderground v.1.15,2013-01-04 07:36:00,
2013-01-04 02:41:00,32.7,22.9,30.16,West,277,3.0,9.0,67,0.00,,,0.00,0,Wunderground v.1.15,2013-01-04 07:41:00,
2013-01-04 02:47:00,32.8,23.0,30.16,NW,305,3.0,9.0,67,0.00,,,0.00,0,Wunderground v.1.15,2013-01-04 07:47:00,
2013-01-04 02:53:00,32.9,23.1,30.16,WNW,294,5.0,9.0,67,0.00,,,0.00,0,Wunderground v.1.15,2013-01-04 07:53:00,
2013-01-04 02:58:00,33.0,23.2,30.16,WNW,285,6.0,11.0,67,0.00,,,0.00,0,Wunderground v.1.15,2013-01-04 07:58:00,
2013-01-04 03:03:00,33.2,23.4,30.16,WNW,286,6.0,11.0,67,0.00,,,0.00,0,Wunderground v.1.15,2013-01-04 08:03:00,
2013-01-04 03:08:00,33.5,23.7,30.16,West,267,6.0,11.0,67,0.00,,,0.00,0,Wunderground v.1.15,2013-01-04 08:08:00,
2013-01-04 03:13:00,34.0,23.8,30.16,WNW,290,6.0,9.0,66,0.00,,,0.00,0,Wunderground v.1.15,2013-01-04 08:13:00,
2013-01-04 03:19:00,34.1,23.9,30.16,West,275,5.0,9.0,66,0.00,,,0.00,0,Wunderground v.1.15,2013-01-04 08:19:00,
2013-01-04 03:24:00,34.3,24.1,30.17,West,279,4.0,9.0,66,0.00,,,0.00,0,Wunderground v.1.15,2013-01-04 08:24:00,
2013-01-04 03:31:00,34.4,24.2,30.16,WSW,242,4.0,9.0,66,0.00,,,0.00,0,Wunderground v.1.15,2013-01-04 08:31:00,
2013-01-04 03:37:00,34.4,24.2,30.16,West,275,5.0,9.0,66,0.00,,,0.00,0,Wunderground v.1.15,2013-01-04 08:37:00,
2013-01-04 03:42:00,34.5,24.3,30.16,West,280,5.0,9.0,66,0.00,,,0.00,0,Wunderground v.1.15,2013-01-04 08:42:00,
2013-01-04 03:47:00,34.5,24.3,30.16,WSW,242,5.0,9.0,66,0.00,,,0.00,0,Wunderground v.1.15,2013-01-04 08:47:00,
2013-01-04 03:52:00,34.6,24.4,30.16,West,268,5.0,9.0,66,0.00,,,0.00,0,Wunderground v.1.15,2013-01-04 08:52:00,
2013-01-04 03:58:00,34.6,24.4,30.16,West,274,5.0,10.0,66,0.00,,,0.00,0,Wunderground v.1.15,2013-01-04 08:58:00,
2013-01-04 04:04:00,34.7,24.5,30.16,WNW,296,5.0,9.0,66,0.00,,,0.00,0,Wunderground v.1.15,2013-01-04 09:04:00,
2013-01-04 04:09:00,34.6,24.4,30.16,SW,234,4.0,9.0,66,0.00,,,0.00,0,Wunderground v.1.15,2013-01-04 09:09:00,
2013-01-04 04:14:00,34.7,24.5,30.16,West,273,5.0,9.0,66,0.00,,,0.00,0,Wunderground v.1.15,2013-01-04 09:14:00,
2013-01-04 04:20:00,34.8,24.6,30.16,WSW,246,5.0,5.0,66,0.00,,,0.00,0,Wunderground v.1.15,2013-01-04 09:20:00,
2013-01-04 04:25:00,34.8,24.6,30.16,WNW,292,5.0,9.0,66,0.00,,,0.00,0,Wunderground v.1.15,2013-01-04 09:25:00,
2013-01-04 04:30:00,34.9,24.3,30.16,WSW,252,5.0,10.0,65,0.00,,,0.00,0,Wunderground v.1.15,2013-01-04 09:30:00,
2013-01-04 04:35:00,34.9,24.7,30.16,West,278,6.0,10.0,66,0.00,,,0.00,0,Wunderground v.1.15,2013-01-04 09:35:00,
2013-01-04 04:41:00,34.9,24.7,30.16,WNW,294,5.0,9.0,66,0.00,,,0.00,0,Wunderground v.1.15,2013-01-04 09:41:00,
2013-01-04 04:47:00,34.7,24.5,30.17,West,259,5.0,9.0,66,0.00,,,0.00,0,Wunderground v.1.15,2013-01-04 09:47:00,
2013-01-04 04:52:00,34.7,24.5,30.17,WSW,237,4.0,9.0,66,0.00,,,0.00,0,Wunderground v.1.15,2013-01-04 09:52:00,
2013-01-04 04:58:00,34.7,24.5,30.16,WSW,255,5.0,9.0,66,0.00,,,0.00,0,Wunderground v.1.15,2013-01-04 09:58:00,
2013-01-04 05:03:00,34.7,24.5,30.17,WSW,245,5.0,10.0,66,0.00,,,0.00,0,Wunderground v.1.15,2013-01-04 10:03:00,
2013-01-04 05:08:00,34.8,24.6,30.17,WSW,255,6.0,11.0,66,0.00,,,0.00,0,Wunderground v.1.15,2013-01-04 10:08:00,
2013-01-04 05:13:00,34.8,24.6,30.17,West,265,7.0,11.0,66,0.00,,,0.00,0,Wunderground v.1.15,2013-01-04 10:13:00,
2013-01-04 05:18:00,34.7,24.9,30.16,WSW,252,6.0,11.0,67,0.00,,,0.00,0,Wunderground v.1.15,2013-01-04 10:18:00,
2013-01-04 05:23:00,34.7,24.5,30.16,WSW,253,5.0,9.0,66,0.00,,,0.00,0,Wunderground v.1.15,2013-01-04 10:23:00,
2013-01-04 05:29:00,34.6,24.8,30.17,SW,223,5.0,9.0,67,0.00,,,0.00,0,Wunderground v.1.15,2013-01-04 10:29:00,
2013-01-04 05:34:00,34.6,24.4,30.17,WSW,252,5.0,9.0,66,0.00,,,0.00,0,Wunderground v.1.15,2013-01-04 10:34:00,
2013-01-04 05:39:00,34.6,24.8,30.17,West,280,6.0,9.0,67,0.00,,,0.00,0,Wunderground v.1.15,2013-01-04 10:39:00,
2013-01-04 05:45:00,34.5,24.7,30.17,WSW,255,5.0,10.0,67,0.00,,,0.00,0,Wunderground v.1.15,2013-01-04 10:45:00,
2013-01-04 05:50:00,34.6,24.8,30.17,West,267,7.0,9.0,67,0.00,,,0.00,0,Wunderground v.1.15,2013-01-04 10:50:00,
2013-01-04 05:56:00,34.5,25.0,30.17,WSW,241,6.0,11.0,68,0.00,,,0.00,0,Wunderground v.1.15,2013-01-04 10:56:00,
2013-01-04 06:02:00,34.5,25.0,30.17,NW,311,7.0,12.0,68,0.00,,,0.00,0,Wunderground v.1.15,2013-01-04 11:02:00,
2013-01-04 06:07:00,34.5,25.0,30.17,WSW,257,7.0,12.0,68,0.00,,,0.00,0,Wunderground v.1.15,2013-01-04 11:07:00,
2013-01-04 06:13:00,34.4,24.9,30.17,WNW,282,6.0,9.0,68,0.00,,,0.00,0,Wunderground v.1.15,2013-01-04 11:13:00,
2013-01-04 06:18:00,34.3,25.2,30.17,WNW,302,5.0,9.0,69,0.00,,,0.00,0,Wunderground v.1.15,2013-01-04 11:18:00,
2013-01-04 06:24:00,34.3,24.8,30.17,West,271,6.0,9.0,68,0.00,,,0.00,0,Wunderground v.1.15,2013-01-04 11:24:00,
2013-01-04 06:30:00,34.4,24.9,30.17,WNW,300,7.0,7.0,68,0.00,,,0.00,0,Wunderground v.1.15,2013-01-04 11:30:00,
2013-01-04 06:35:00,34.3,24.8,30.17,WNW,298,6.0,9.0,68,0.00,,,0.00,0,Wunderground v.1.15,2013-01-04 11:35:00,
2013-01-04 06:41:00,34.2,25.1,30.17,WSW,241,4.0,9.0,69,0.00,,,0.00,0,Wunderground v.1.15,2013-01-04 11:41:00,
2013-01-04 06:46:00,34.2,24.7,30.17,WNW,288,5.0,14.0,68,0.00,,,0.00,0,Wunderground v.1.15,2013-01-04 11:46:00,
2013-01-04 06:52:00,34.2,24.7,30.17,WSW,240,7.0,12.0,68,0.00,,,0.00,0,Wunderground v.1.15,2013-01-04 11:52:00,
2013-01-04 06:57:00,34.2,24.7,30.17,SSW,211,8.0,12.0,68,0.00,,,0.00,0,Wunderground v.1.15,2013-01-04 11:57:00,
2013-01-04 07:03:00,34.1,24.6,30.17,West,277,7.0,9.0,68,0.00,,,0.00,0,Wunderground v.1.15,2013-01-04 12:03:00,
2013-01-04 07:08:00,34.1,24.6,30.17,WNW,293,6.0,9.0,68,0.00,,,0.00,0,Wunderground v.1.15,2013-01-04 12:08:00,
2013-01-04 07:13:00,33.9,24.4,30.17,West,269,5.0,9.0,68,0.00,,,0.00,0,Wunderground v.1.15,2013-01-04 12:13:00,
2013-01-04 07:19:00,33.9,24.4,30.17,WSW,240,5.0,9.0,68,0.00,,,0.00,0,Wunderground v.1.15,2013-01-04 12:19:00,
2013-01-04 07:24:00,33.7,24.6,30.17,WSW,257,4.0,9.0,69,0.00,,,0.00,0,Wunderground v.1.15,2013-01-04 12:24:00,
2013-01-04 07:29:00,33.6,24.5,30.17,West,265,4.0,9.0,69,0.00,,,0.00,7,Wunderground v.1.15,2013-01-04 12:29:00,
2013-01-04 07:37:00,33.4,24.3,30.17,West,261,3.0,9.0,69,0.00,,,0.00,16,Wunderground v.1.15,2013-01-04 12:37:00,
2013-01-04 07:42:00,33.4,24.3,30.17,West,261,3.0,9.0,69,0.00,,,0.00,21,Wunderground v.1.15,2013-01-04 12:42:00,
2013-01-04 07:47:00,33.4,24.0,30.17,SW,236,4.0,9.0,68,0.00,,,0.00,26,Wunderground v.1.15,2013-01-04 12:47:00,
2013-01-04 07:52:00,33.5,24.1,30.17,SW,229,4.0,9.0,68,0.00,,,0.00,37,Wunderground v.1.15,2013-01-04 12:52:00,
2013-01-04 07:57:00,33.3,24.2,30.17,West,264,3.0,9.0,69,0.00,,,0.00,39,Wunderground v.1.15,2013-01-04 12:57:00,
2013-01-04 08:03:00,33.2,23.8,30.17,SW,233,3.0,9.0,68,0.00,,,0.00,46,Wunderground v.1.15,2013-01-04 13:03:00,
2013-01-04 08:09:00,33.2,24.1,30.17,West,269,4.0,9.0,69,0.00,,,0.00,54,Wunderground v.1.15,2013-01-04 13:09:00,
2013-01-04 08:14:00,33.3,23.9,30.17,West,261,3.0,9.0,68,0.00,,,0.00,46,Wunderground v.1.15,2013-01-04 13:14:00,
2013-01-04 08:21:00,33.3,24.2,30.17,WSW,254,3.0,9.0,69,0.00,,,0.00,40,Wunderground v.1.15,2013-01-04 13:21:00,
2013-01-04 08:27:00,33.4,24.0,30.17,WSW,255,4.0,9.0,68,0.00,,,0.00,56,Wunderground v.1.15,2013-01-04 13:27:00,
2013-01-04 08:32:00,33.5,24.1,30.17,WNW,288,4.0,9.0,68,0.00,,,0.00,40,Wunderground v.1.15,2013-01-04 13:32:00,
2013-01-04 08:37:00,33.6,24.2,30.17,West,264,4.0,9.0,68,0.00,,,0.00,53,Wunderground v.1.15,2013-01-04 13:37:00,
2013-01-04 08:42:00,33.8,24.4,30.17,West,279,4.0,9.0,68,0.00,,,0.00,54,Wunderground v.1.15,2013-01-04 13:42:00,
2013-01-04 08:48:00,34.1,24.3,30.17,WNW,297,4.0,10.0,67,0.00,,,0.00,49,Wunderground v.1.15,2013-01-04 13:48:00,
2013-01-04 08:54:00,34.3,24.1,30.17,SW,234,6.0,9.0,66,0.00,,,0.00,49,Wunderground v.1.15,2013-01-04 13:54:00,
2013-01-04 08:59:00,34.4,24.2,30.17,WNW,288,6.0,6.0,66,0.00,,,0.00,54,Wunderground v.1.15,2013-01-04 13:59:00,
2013-01-04 09:05:00,34.5,24.3,30.18,WSW,243,5.0,9.0,66,0.00,,,0.00,72,Wunderground v.1.15,2013-01-04 14:05:00,
2013-01-04 09:10:00,34.6,24.4,30.18,West,275,6.0,9.0,66,0.00,,,0.00,76,Wunderground v.1.15,2013-01-04 14:10:00,
2013-01-04 09:16:00,34.7,24.5,30.18,WSW,254,7.0,9.0,66,0.00,,,0.00,74,Wunderground v.1.15,2013-01-04 14:16:00,
2013-01-04 09:22:00,34.7,24.5,30.18,West,279,7.0,13.0,66,0.00,,,0.00,83,Wunderground v.1.15,2013-01-04 14:22:00,
2013-01-04 09:29:00,34.8,25.0,30.18,WSW,257,7.0,9.0,67,0.00,,,0.00,83,Wunderground v.1.15,2013-01-04 14:29:00,
2013-01-04 09:35:00,34.8,24.6,30.18,West,267,6.0,9.0,66,0.00,,,0.00,91,Wunderground v.1.15,2013-01-04 14:35:00,
2013-01-04 09:41:00,34.8,25.0,30.18,West,261,6.0,9.0,67,0.00,,,0.00,100,Wunderground v.1.15,2013-01-04 14:41:00,
2013-01-04 09:46:00,34.8,25.3,30.18,WSW,238,6.0,10.0,68,0.00,,,0.00,107,Wunderground v.1.15,2013-01-04 14:46:00,
2013-01-04 09:52:00,34.8,25.0,30.18,SW,228,7.0,11.0,67,0.00,,,0.00,132,Wunderground v.1.15,2013-01-04 14:52:00,
2013-01-04 09:57:00,34.9,25.4,30.18,WNW,287,7.0,11.0,68,0.00,,,0.00,105,Wunderground v.1.15,2013-01-04 14:57:00,
2013-01-04 10:02:00,34.8,25.0,30.18,West,269,6.0,9.0,67,0.00,,,0.00,105,Wunderground v.1.15,2013-01-04 15:02:00,
2013-01-04 10:08:00,34.8,25.3,30.17,West,270,8.0,13.0,68,0.00,,,0.00,160,Wunderground v.1.15,2013-01-04 15:08:00,
2013-01-04 10:16:00,34.8,25.3,30.17,NW,304,7.0,10.0,68,0.00,,,0.00,109,Wunderground v.1.15,2013-01-04 15:16:00,
2013-01-04 10:21:00,34.8,25.3,30.18,SW,227,7.0,9.0,68,0.00,,,0.00,292,Wunderground v.1.15,2013-01-04 15:21:00,
2013-01-04 10:26:00,34.9,25.4,30.17,WSW,256,8.0,12.0,68,0.00,,,0.00,144,Wunderground v.1.15,2013-01-04 15:26:00,
2013-01-04 10:31:00,35.0,25.5,30.17,WSW,245,8.0,10.0,68,0.00,,,0.00,135,Wunderground v.1.15,2013-01-04 15:31:00,
2013-01-04 10:38:00,35.0,25.9,30.16,WNW,289,8.0,14.0,69,0.00,,,0.00,297,Wunderground v.1.15,2013-01-04 15:38:00,
2013-01-04 10:44:00,35.2,25.7,30.16,West,263,8.0,14.0,68,0.00,,,0.00,332,Wunderground v.1.15,2013-01-04 15:44:00,
2013-01-04 10:49:00,35.7,25.8,30.16,WNW,282,8.0,14.0,67,0.00,,,0.00,151,Wunderground v.1.15,2013-01-04 15:49:00,
2013-01-04 10:54:00,35.8,25.5,30.15,West,267,9.0,11.0,66,0.00,,,0.00,443,Wunderground v.1.15,2013-01-04 15:54:00,
2013-01-04 10:59:00,35.9,25.6,30.15,West,279,9.0,11.0,66,0.00,,,0.00,178,Wunderground v.1.15,2013-01-04 15:59:00,
2013-01-04 11:04:00,36.0,25.4,30.15,WSW,244,8.0,9.0,65,0.00,,,0.00,199,Wunderground v.1.15,2013-01-04 16:04:00,
2013-01-04 11:10:00,36.0,25.0,30.15,WSW,255,9.0,9.0,64,0.00,,,0.00,199,Wunderground v.1.15,2013-01-04 16:10:00,
2013-01-04 11:15:00,36.2,24.4,30.14,WNW,284,10.0,19.0,62,0.00,,,0.00,202,Wunderground v.1.15,2013-01-04 16:15:00,
2013-01-04 11:20:00,36.2,24.0,30.14,West,269,9.0,9.0,61,0.00,,,0.00,193,Wunderground v.1.15,2013-01-04 16:20:00,
2013-01-04 11:27:00,35.7,23.9,30.14,West,275,10.0,14.0,62,0.00,,,0.00,193,Wunderground v.1.15,2013-01-04 16:27:00,
2013-01-04 11:32:00,35.8,24.0,30.14,WNW,300,11.0,11.0,62,0.00,,,0.00,200,Wunderground v.1.15,2013-01-04 16:32:00,
2013-01-04 11:38:00,35.9,24.1,30.13,SSW,210,10.0,11.0,62,0.00,,,0.00,186,Wunderground v.1.15,2013-01-04 16:38:00,
2013-01-04 11:43:00,36.1,23.9,30.13,SW,222,9.0,13.0,61,0.00,,,0.00,174,Wunderground v.1.15,2013-01-04 16:43:00,
2013-01-04 11:49:00,36.0,23.8,30.13,West,276,10.0,21.0,61,0.00,,,0.00,165,Wunderground v.1.15,2013-01-04 16:49:00,
2013-01-04 11:54:00,36.1,23.9,30.13,WNW,295,10.0,16.0,61,0.00,,,0.01,193,Wunderground v.1.15,2013-01-04 16:54:00,
2013-01-04 12:00:00,36.1,24.3,30.12,West,276,10.0,10.0,62,0.00,,,0.01,167,Wunderground v.1.15,2013-01-04 17:00:00,
2013-01-04 12:06:00,36.0,23.8,30.12,WSW,250,10.0,15.0,61,0.00,,,0.01,153,Wunderground v.1.15,2013-01-04 17:06:00,
2013-01-04 12:13:00,35.8,23.7,30.12,WNW,294,12.0,18.0,61,0.00,,,0.01,186,Wunderground v.1.15,2013-01-04 17:13:00,
2013-01-04 12:19:00,35.7,23.9,30.12,WNW,288,11.0,18.0,62,0.00,,,0.01,163,Wunderground v.1.15,2013-01-04 17:19:00,
2013-01-04 12:24:00,35.7,23.9,30.11,West,271,11.0,17.0,62,0.00,,,0.01,141,Wunderground v.1.15,2013-01-04 17:24:00,
2013-01-04 12:32:00,35.8,24.0,30.11,WNW,284,10.0,11.0,62,0.00,,,0.01,330,Wunderground v.1.15,2013-01-04 17:32:00,
2013-01-04 12:37:00,36.2,24.8,30.10,WNW,294,9.0,14.0,63,0.00,,,0.01,250,Wunderground v.1.15,2013-01-04 17:37:00,
2013-01-04 12:43:00,36.1,24.7,30.10,West,259,10.0,14.0,63,0.00,,,0.01,234,Wunderground v.1.15,2013-01-04 17:43:00,
2013-01-04 12:48:00,36.3,24.9,30.10,West,270,9.0,14.0,63,0.00,,,0.01,211,Wunderground v.1.15,2013-01-04 17:48:00,
2013-01-04 12:54:00,36.1,24.3,30.10,West,261,9.0,16.0,62,0.00,,,0.01,209,Wunderground v.1.15,2013-01-04 17:54:00,
2013-01-04 13:00:00,35.8,24.4,30.10,WNW,282,11.0,14.0,63,0.00,,,0.01,190,Wunderground v.1.15,2013-01-04 18:00:00,
2013-01-04 13:06:00,35.9,24.1,30.09,WNW,283,11.0,15.0,62,0.00,,,0.01,199,Wunderground v.1.15,2013-01-04 18:06:00,
2013-01-04 13:11:00,36.0,24.6,30.09,West,261,9.0,10.0,63,0.00,,,0.01,186,Wunderground v.1.15,2013-01-04 18:11:00,
2013-01-04 13:18:00,36.4,24.6,30.09,WSW,246,9.0,10.0,62,0.00,,,0.01,172,Wunderground v.1.15,2013-01-04 18:18:00,
2013-01-04 13:23:00,36.1,24.7,30.09,West,276,10.0,11.0,63,0.00,,,0.01,139,Wunderground v.1.15,2013-01-04 18:23:00,
2013-01-04 13:29:00,35.9,24.9,30.08,WNW,282,10.0,13.0,64,0.00,,,0.01,130,Wunderground v.1.15,2013-01-04 18:29:00,
2013-01-04 13:36:00,35.9,24.9,30.08,WSW,254,10.0,14.0,64,0.00,,,0.01,105,Wunderground v.1.15,2013-01-04 18:36:00,
2013-01-04 13:42:00,35.8,24.8,30.08,WNW,292,11.0,13.0,64,0.00,,,0.01,113,Wunderground v.1.15,2013-01-04 18:42:00,
2013-01-04 13:47:00,36.1,24.7,30.08,West,275,13.0,18.0,63,0.00,,,0.01,404,Wunderground v.1.15,2013-01-04 18:47:00,
2013-01-04 13:53:00,36.0,24.6,30.08,WSW,240,12.0,17.0,63,0.00,,,0.01,135,Wunderground v.1.15,2013-01-04 18:53:00,
2013-01-04 14:01:00,36.2,25.2,30.08,West,268,10.0,14.0,64,0.00,,,0.01,183,Wunderground v.1.15,2013-01-04 19:01:00,
2013-01-04 14:07:00,36.7,25.3,30.08,West,259,9.0,14.0,63,0.00,,,0.02,329,Wunderground v.1.15,2013-01-04 19:07:00,
2013-01-04 14:13:00,36.6,25.2,30.07,NW,313,10.0,11.0,63,0.00,,,0.02,325,Wunderground v.1.15,2013-01-04 19:13:00,
2013-01-04 14:18:00,36.9,25.5,30.07,WSW,254,10.0,14.0,63,0.00,,,0.02,297,Wunderground v.1.15,2013-01-04 19:18:00,
2013-01-04 14:23:00,36.9,25.5,30.07,West,264,9.0,13.0,63,0.00,,,0.02,283,Wunderground v.1.15,2013-01-04 19:23:00,
2013-01-04 14:29:00,36.9,24.7,30.07,WNW,285,10.0,13.0,61,0.00,,,0.02,272,Wunderground v.1.15,2013-01-04 19:29:00,
2013-01-04 14:34:00,37.3,25.1,30.07,West,273,9.0,12.0,61,0.00,,,0.02,260,Wunderground v.1.15,2013-01-04 19:34:00,
2013-01-04 14:39:00,37.3,25.1,30.07,NW,320,9.0,10.0,61,0.00,,,0.02,241,Wunderground v.1.15,2013-01-04 19:39:00,
2013-01-04 14:44:00,37.3,24.7,30.07,West,265,10.0,17.0,60,0.00,,,0.02,227,Wunderground v.1.15,2013-01-04 19:44:00,
2013-01-04 14:50:00,37.5,25.3,30.07,West,273,9.0,9.0,61,0.00,,,0.02,214,Wunderground v.1.15,2013-01-04 19:50:00,
2013-01-04 14:55:00,37.4,24.8,30.06,WNW,283,8.0,12.0,60,0.00,,,0.02,200,Wunderground v.1.15,2013-01-04 19:55:00,
2013-01-04 15:00:00,37.5,24.5,30.06,SW,227,8.0,9.0,59,0.00,,,0.02,183,Wunderground v.1.15,2013-01-04 20:00:00,
2013-01-04 15:05:00,37.7,25.1,30.06,SW,234,7.0,11.0,60,0.00,,,0.02,167,Wunderground v.1.15,2013-01-04 20:05:00,
2013-01-04 15:10:00,37.8,24.7,30.06,NW,308,7.0,8.0,59,0.00,,,0.02,155,Wunderground v.1.15,2013-01-04 20:10:00,
2013-01-04 15:16:00,37.9,24.8,30.06,West,259,7.0,9.0,59,0.00,,,0.02,141,Wunderground v.1.15,2013-01-04 20:16:00,
2013-01-04 15:21:00,38.0,24.9,30.06,WSW,251,6.0,11.0,59,0.00,,,0.02,127,Wunderground v.1.15,2013-01-04 20:21:00,
2013-01-04 15:26:00,38.0,24.9,30.06,SW,236,7.0,11.0,59,0.00,,,0.02,114,Wunderground v.1.15,2013-01-04 20:26:00,
2013-01-04 15:31:00,38.0,24.5,30.06,SW,216,8.0,9.0,58,0.00,,,0.02,98,Wunderground v.1.15,2013-01-04 20:31:00,
2013-01-04 15:36:00,38.0,24.9,30.06,WNW,286,7.0,10.0,59,0.00,,,0.02,88,Wunderground v.1.15,2013-01-04 20:36:00,
2013-01-04 15:42:00,37.9,24.8,30.06,West,265,6.0,9.0,59,0.00,,,0.02,74,Wunderground v.1.15,2013-01-04 20:42:00,
2013-01-04 15:47:00,37.9,24.8,30.06,WSW,247,5.0,10.0,59,0.00,,,0.02,62,Wunderground v.1.15,2013-01-04 20:47:00,
2013-01-04 15:52:00,37.7,24.6,30.06,WSW,242,7.0,9.0,59,0.00,,,0.02,51,Wunderground v.1.15,2013-01-04 20:52:00,
2013-01-04 15:58:00,37.7,24.6,30.06,WSW,242,7.0,9.0,59,0.00,,,0.03,42,Wunderground v.1.15,2013-01-04 20:58:00,
2013-01-04 16:03:00,37.7,24.6,30.06,West,277,6.0,9.0,59,0.00,,,0.03,35,Wunderground v.1.15,2013-01-04 21:03:00,
2013-01-04 16:08:00,37.6,25.0,30.06,WNW,287,5.0,9.0,60,0.00,,,0.03,30,Wunderground v.1.15,2013-01-04 21:08:00,
2013-01-04 16:14:00,37.5,24.5,30.06,WSW,239,6.0,9.0,59,0.00,,,0.03,26,Wunderground v.1.15,2013-01-04 21:14:00,
2013-01-04 16:19:00,37.5,24.5,30.06,WSW,251,5.0,9.0,59,0.00,,,0.03,23,Wunderground v.1.15,2013-01-04 21:19:00,
2013-01-04 16:24:00,37.3,24.7,30.06,West,277,4.0,9.0,60,0.00,,,0.03,19,Wunderground v.1.15,2013-01-04 21:24:00,
2013-01-04 16:29:00,37.0,24.4,30.06,West,280,4.0,10.0,60,0.00,,,0.03,14,Wunderground v.1.15,2013-01-04 21:29:00,
2013-01-04 16:34:00,37.0,24.8,30.06,WSW,240,5.0,9.0,61,0.00,,,0.03,11,Wunderground v.1.15,2013-01-04 21:34:00,
2013-01-04 16:40:00,36.9,24.7,30.06,SW,227,5.0,9.0,61,0.00,,,0.03,7,Wunderground v.1.15,2013-01-04 21:40:00,
2013-01-04 16:44:00,36.7,24.5,30.06,West,277,5.0,10.0,61,0.00,,,0.03,5,Wunderground v.1.15,2013-01-04 21:44:00,
2013-01-04 16:50:00,36.6,24.8,30.06,WSW,246,5.0,5.0,62,0.00,,,0.03,0,Wunderground v.1.15,2013-01-04 21:50:00,
2013-01-04 16:55:00,36.7,24.9,30.06,West,269,6.0,9.0,62,0.00,,,0.03,0,Wunderground v.1.15,2013-01-04 21:55:00,
2013-01-04 17:00:00,36.6,24.8,30.06,WSW,252,7.0,7.0,62,0.00,,,0.03,0,Wunderground v.1.15,2013-01-04 22:00:00,
2013-01-04 17:06:00,36.5,24.7,30.06,West,269,6.0,9.0,62,0.00,,,0.03,0,Wunderground v.1.15,2013-01-04 22:06:00,
2013-01-04 17:11:00,36.5,24.7,30.06,WSW,256,6.0,9.0,62,0.00,,,0.03,0,Wunderground v.1.15,2013-01-04 22:11:00,
2013-01-04 17:16:00,36.2,24.8,30.07,West,274,5.0,9.0,63,0.00,,,0.03,0,Wunderground v.1.15,2013-01-04 22:16:00,
2013-01-04 17:21:00,36.2,24.8,30.07,SW,230,5.0,9.0,63,0.00,,,0.03,0,Wunderground v.1.15,2013-01-04 22:21:00,
2013-01-04 17:26:00,36.0,24.6,30.07,NW,304,4.0,9.0,63,0.00,,,0.03,0,Wunderground v.1.15,2013-01-04 22:26:00,
2013-01-04 17:32:00,36.0,24.6,30.08,WSW,252,5.0,9.0,63,0.00,,,0.03,0,Wunderground v.1.15,2013-01-04 22:32:00,
2013-01-04 17:37:00,36.0,24.6,30.07,NW,313,4.0,9.0,63,0.00,,,0.03,0,Wunderground v.1.15,2013-01-04 22:37:00,
2013-01-04 17:43:00,36.1,24.7,30.08,West,272,4.0,9.0,63,0.00,,,0.03,0,Wunderground v.1.15,2013-01-04 22:43:00,
2013-01-04 17:48:00,36.0,24.6,30.07,West,271,4.0,9.0,63,0.00,,,0.03,0,Wunderground v.1.15,2013-01-04 22:48:00,
2013-01-04 17:53:00,35.8,24.4,30.08,SW,226,4.0,9.0,63,0.00,,,0.03,0,Wunderground v.1.15,2013-01-04 22:53:00,
2013-01-04 17:58:00,35.7,24.3,30.08,NW,304,4.0,9.0,63,0.00,,,0.03,0,Wunderground v.1.15,2013-01-04 22:58:00,
2013-01-04 18:03:00,35.7,24.3,30.08,NNW,330,4.0,9.0,63,0.00,,,0.03,0,Wunderground v.1.15,2013-01-04 23:03:00,
2013-01-04 18:09:00,35.9,24.5,30.08,West,268,5.0,9.0,63,0.00,,,0.03,0,Wunderground v.1.15,2013-01-04 23:09:00,
2013-01-04 18:14:00,36.1,24.7,30.08,NW,309,6.0,9.0,63,0.00,,,0.03,0,Wunderground v.1.15,2013-01-04 23:14:00,
2013-01-04 18:19:00,36.2,24.4,30.08,West,263,6.0,6.0,62,0.00,,,0.03,0,Wunderground v.1.15,2013-01-04 23:19:00,
2013-01-04 18:24:00,35.9,24.5,30.08,West,278,6.0,9.0,63,0.00,,,0.03,0,Wunderground v.1.15,2013-01-04 23:24:00,
2013-01-04 18:29:00,35.9,24.5,30.08,WNW,301,6.0,6.0,63,0.00,,,0.03,0,Wunderground v.1.15,2013-01-04 23:29:00,
2013-01-04 18:35:00,35.9,24.5,30.08,West,264,6.0,9.0,63,0.00,,,0.03,0,Wunderground v.1.15,2013-01-04 23:35:00,
2013-01-04 18:40:00,35.9,24.5,30.08,WNW,287,6.0,9.0,63,0.00,,,0.03,0,Wunderground v.1.15,2013-01-04 23:40:00,
2013-01-04 18:46:00,36.0,24.6,30.08,West,267,6.0,9.0,63,0.00,,,0.03,0,Wunderground v.1.15,2013-01-04 23:46:00,
2013-01-04 18:51:00,36.0,24.6,30.08,WNW,297,7.0,9.0,63,0.00,,,0.03,0,Wunderground v.1.15,2013-01-04 23:51:00,
2013-01-04 18:56:00,36.0,24.6,30.08,WSW,250,7.0,9.0,63,0.00,,,0.03,0,Wunderground v.1.15,2013-01-04 23:56:00,
2013-01-04 19:01:00,36.0,24.6,30.08,WNW,282,6.0,9.0,63,0.00,,,0.03,0,Wunderground v.1.15,2013-01-05 00:01:00,
2013-01-04 19:06:00,35.9,24.5,30.08,WNW,297,6.0,9.0,63,0.00,,,0.03,0,Wunderground v.1.15,2013-01-05 00:06:00,
2013-01-04 19:12:00,35.9,24.5,30.08,West,261,6.0,9.0,63,0.00,,,0.03,0,Wunderground v.1.15,2013-01-05 00:12:00,
2013-01-04 19:17:00,36.0,24.6,30.08,West,281,7.0,10.0,63,0.00,,,0.03,0,Wunderground v.1.15,2013-01-05 00:17:00,
2013-01-04 19:22:00,36.0,24.2,30.08,West,267,7.0,9.0,62,0.00,,,0.03,0,Wunderground v.1.15,2013-01-05 00:22:00,
2013-01-04 19:27:00,35.9,24.5,30.08,West,264,6.0,9.0,63,0.00,,,0.03,0,Wunderground v.1.15,2013-01-05 00:27:00,
2013-01-04 19:33:00,35.8,24.4,30.08,WSW,255,5.0,9.0,63,0.00,,,0.03,0,Wunderground v.1.15,2013-01-05 00:33:00,
2013-01-04 19:38:00,35.6,24.2,30.09,West,280,5.0,9.0,63,0.00,,,0.03,0,Wunderground v.1.15,2013-01-05 00:38:00,
2013-01-04 19:43:00,35.8,24.0,30.08,WNW,288,6.0,10.0,62,0.00,,,0.03,0,Wunderground v.1.15,2013-01-05 00:43:00,
2013-01-04 19:48:00,35.9,24.1,30.08,WSW,245,6.0,10.0,62,0.00,,,0.03,0,Wunderground v.1.15,2013-01-05 00:48:00,
2013-01-04 19:53:00,35.7,23.9,30.08,West,266,5.0,10.0,62,0.00,,,0.03,0,Wunderground v.1.15,2013-01-05 00:53:00,
2013-01-04 19:59:00,35.6,24.2,30.08,SW,230,5.0,9.0,63,0.00,,,0.03,0,Wunderground v.1.15,2013-01-05 00:59:00,
2013-01-04 20:04:00,35.5,24.1,30.08,WSW,250,5.0,9.0,63,0.00,,,0.03,0,Wunderground v.1.15,2013-01-05 01:04:00,
2013-01-04 20:09:00,35.7,23.9,30.08,WSW,257,6.0,6.0,62,0.00,,,0.03,0,Wunderground v.1.15,2013-01-05 01:09:00,
2013-01-04 20:14:00,35.6,23.9,30.08,West,260,6.0,9.0,62,0.00,,,0.03,0,Wunderground v.1.15,2013-01-05 01:14:00,
2013-01-04 20:20:00,35.5,23.8,30.08,SW,234,5.0,9.0,62,0.00,,,0.03,0,Wunderground v.1.15,2013-01-05 01:20:00,
2013-01-04 20:25:00,35.7,23.9,30.08,WSW,243,6.0,11.0,62,0.00,,,0.03,0,Wunderground v.1.15,2013-01-05 01:25:00,
2013-01-04 20:31:00,35.6,23.9,30.08,SSW,200,5.0,9.0,62,0.00,,,0.03,0,Wunderground v.1.15,2013-01-05 01:31:00,
2013-01-04 20:36:00,35.5,23.8,30.08,WNW,287,5.0,9.0,62,0.00,,,0.03,0,Wunderground v.1.15,2013-01-05 01:36:00,
2013-01-04 20:41:00,35.3,23.6,30.08,West,279,5.0,9.0,62,0.00,,,0.03,0,Wunderground v.1.15,2013-01-05 01:41:00,
2013-01-04 20:46:00,35.3,23.6,30.08,WNW,300,4.0,9.0,62,0.00,,,0.03,0,Wunderground v.1.15,2013-01-05 01:46:00,
2013-01-04 20:51:00,35.4,23.7,30.08,WNW,286,5.0,9.0,62,0.00,,,0.03,0,Wunderground v.1.15,2013-01-05 01:51:00,
2013-01-04 20:56:00,35.5,23.4,30.08,WNW,289,6.0,14.0,61,0.00,,,0.03,0,Wunderground v.1.15,2013-01-05 01:56:00,
2013-01-04 21:01:00,35.6,23.5,30.08,WNW,285,7.0,9.0,61,0.00,,,0.03,0,Wunderground v.1.15,2013-01-05 02:01:00,
2013-01-04 21:06:00,35.5,23.8,30.08,SW,232,7.0,9.0,62,0.00,,,0.03,0,Wunderground v.1.15,2013-01-05 02:06:00,
2013-01-04 21:11:00,35.5,23.4,30.08,WNW,296,7.0,9.0,61,0.00,,,0.03,0,Wunderground v.1.15,2013-01-05 02:11:00,
2013-01-04 21:16:00,35.7,23.6,30.08,West,269,8.0,15.0,61,0.00,,,0.03,0,Wunderground v.1.15,2013-01-05 02:16:00,
2013-01-04 21:21:00,35.5,23.4,30.08,WNW,301,8.0,9.0,61,0.00,,,0.03,0,Wunderground v.1.15,2013-01-05 02:21:00,
2013-01-04 21:26:00,35.5,23.4,30.08,WSW,254,8.0,12.0,61,0.00,,,0.03,0,Wunderground v.1.15,2013-01-05 02:26:00,
2013-01-04 21:32:00,35.5,23.0,30.08,NW,307,8.0,11.0,60,0.00,,,0.03,0,Wunderground v.1.15,2013-01-05 02:32:00,
2013-01-04 21:37:00,35.3,23.2,30.08,West,272,7.0,11.0,61,0.00,,,0.03,0,Wunderground v.1.15,2013-01-05 02:37:00,
2013-01-04 21:42:00,35.4,22.9,30.08,WNW,293,7.0,9.0,60,0.00,,,0.03,0,Wunderground v.1.15,2013-01-05 02:42:00,
2013-01-04 21:47:00,35.5,23.0,30.08,WSW,249,8.0,11.0,60,0.00,,,0.03,0,Wunderground v.1.15,2013-01-05 02:47:00,
2013-01-04 21:53:00,35.4,22.9,30.08,WSW,256,8.0,10.0,60,0.00,,,0.03,0,Wunderground v.1.15,2013-01-05 02:53:00,
2013-01-04 21:58:00,35.3,22.8,30.09,WSW,254,8.0,12.0,60,0.00,,,0.03,0,Wunderground v.1.15,2013-01-05 02:58:00,
2013-01-04 22:03:00,35.4,22.9,30.09,West,270,9.0,11.0,60,0.00,,,0.03,0,Wunderground v.1.15,2013-01-05 03:03:00,
2013-01-04 22:08:00,35.3,22.8,30.09,West,265,8.0,11.0,60,0.00,,,0.03,0,Wunderground v.1.15,2013-01-05 03:08:00,
2013-01-04 22:13:00,35.4,22.9,30.09,WNW,294,8.0,11.0,60,0.00,,,0.03,0,Wunderground v.1.15,2013-01-05 03:13:00,
2013-01-04 22:19:00,35.3,22.8,30.09,West,261,8.0,11.0,60,0.00,,,0.03,0,Wunderground v.1.15,2013-01-05 03:19:00,
2013-01-04 22:24:00,35.3,22.8,30.09,WSW,256,8.0,12.0,60,0.00,,,0.03,0,Wunderground v.1.15,2013-01-05 03:24:00,
2013-01-04 22:29:00,35.3,22.8,30.09,West,276,8.0,12.0,60,0.00,,,0.03,0,Wunderground v.1.15,2013-01-05 03:29:00,
2013-01-04 22:34:00,35.0,22.5,30.09,West,275,7.0,10.0,60,0.00,,,0.03,0,Wunderground v.1.15,2013-01-05 03:34:00,
2013-01-04 22:39:00,35.2,22.7,30.09,SW,233,7.0,10.0,60,0.00,,,0.03,0,Wunderground v.1.15,2013-01-05 03:39:00,
2013-01-04 22:45:00,35.0,22.5,30.09,West,267,7.0,10.0,60,0.00,,,0.03,0,Wunderground v.1.15,2013-01-05 03:45:00,
2013-01-04 22:49:00,34.8,22.3,30.10,West,267,6.0,6.0,60,0.00,,,0.03,0,Wunderground v.1.15,2013-01-05 03:49:00,
2013-01-04 22:58:00,35.0,22.5,30.10,West,261,7.0,13.0,60,0.00,,,0.03,0,Wunderground v.1.15,2013-01-05 03:58:00,
2013-01-04 23:13:00,34.9,22.0,30.10,WNW,287,7.0,9.0,59,0.00,,,0.03,0,Wunderground v.1.15,2013-01-05 04:13:00,
2013-01-04 23:19:00,34.8,22.3,30.10,NW,306,7.0,9.0,60,0.00,,,0.03,0,Wunderground v.1.15,2013-01-05 04:19:00,
2013-01-04 23:24:00,34.8,21.9,30.10,WNW,293,7.0,9.0,59,0.00,,,0.03,0,Wunderground v.1.15,2013-01-05 04:24:00,
2013-01-04 23:53:00,34.5,22.0,30.11,NW,317,6.0,9.0,60,0.00,,,0.03,0,Wunderground v.1.15,2013-01-05 04:53:00,